Regional Weather Roundup
Issued by NWS

Home | Current Version | Previous Version | Text Only | Print | Product List | Glossary On
Versions: 1 2 3 4 5 6 7 8 9 10 11 12 13 14 15 16 17 18 19 20 21 22 23 24 25 26 27 28 29 30 31 32 33 34 35 36 37 38 39 40 41 42 43 44 45 46 47 48 49 50
000
ASUS43 KFSD 271910
RWRSD

WEATHER ROUNDUP FOR SOUTH DAKOTA
NATIONAL WEATHER SERVICE SIOUX FALLS SD
200 PM CDT SUN MAY 27 2018

NOTE: "FAIR" INDICATES FEW OR NO CLOUDS BELOW 12,000 FEET WITH NO
SIGNIFICANT WEATHER AND/OR OBSTRUCTIONS TO VISIBILITY.


SDZ001>005-009-010-012>017-272000-
NORTHWEST AND NORTH CENTRAL SOUTH DAKOTA

CITY           SKY/WX    TMP DP  RH WIND       PRES   REMARKS
BUFFALO          N/A     78  56  46 NW18      29.86R
FAITH            N/A     79  64  60 N18       29.82R
MOBRIDGE       MOSUNNY   88  61  40 NW6       29.73R
$$

SDZ012>016-024>037-041>051-057-063-072>074-272000-
SOUTHWEST AND SOUTH CENTRAL SOUTH DAKOTA

CITY           SKY/WX    TMP DP  RH WIND       PRES   REMARKS
RAPID CTY ARPT SUNNY     80  58  46 N17       29.87F
PIERRE         SUNNY     87  62  43 S7        29.73S
CUSTER         MOSUNNY   76  42  29 NE17G24   30.00S
ELLSWORTH AFB  SUNNY     80  56  44 N17       29.87F
PHILIP         MOSUNNY   84  66  54 NW13      29.78R
PINE RIDGE     PTSUNNY   82  63  52 N8        29.86F
SPEARFISH      FAIR      75  57  53 NW13      29.98R
WINNER         FAIR      91  60  35 SW17G28   29.76F
$$

SDZ004>011-016>023-039-040-272000-
NORTHEAST SOUTH DAKOTA

CITY           SKY/WX    TMP DP  RH WIND       PRES   REMARKS
ABERDEEN       PTSUNNY   95  60  31 SE16G31   29.72F HX  95
WATERTOWN      CLOUDY    89  58  34 E10       29.81F
BROOKINGS      CLOUDY    96  58  27 SW16      29.81F HX  95
SISSETON         N/A     82  66  58 SE20G26   29.78F
$$

SDZ017-020-022-023-036>040-048>070-272000-
SOUTHEAST SOUTH DAKOTA

CITY           SKY/WX    TMP DP  RH WIND       PRES   REMARKS
SIOUX FALLS    MOSUNNY   94  62  34 S9        29.82F
HURON          MOSUNNY   94  62  34 S17G31    29.73F
CHAMBERLAIN    MOSUNNY   95  63  34 S20G29    29.75F HX  96
MITCHELL       SUNNY     95  62  33 SW12      29.78S HX  96
YANKTON        SUNNY     96  60  30 S13G21    29.80S HX  96
$$

ABBREVIATIONS USED IN REMARKS
   TC - TEMPERATURE IN CELSIUS
  WCI - WIND CHILL INDEX
   HX - HEAT INDEX
  VSB - VISIBILITY





USA.gov is the U.S. government's official web portal to all federal, state and local government web resources and services.